Skip Page Navigation
NASA JPL Caltech
NASA Logo - Jet Propulsion Laboratory + View the NASA Portal
+ Center for Near-Earth Object Studies
JPL Home Earth Solar System Stars & Galaxies Technology
JPL Solar System Dynamics
BODIES ORBITS EPHEMERIDES TOOLS PHYSICAL DATA DISCOVERY FAQ SITE MAP
IMPORTANT: The SSD Announcement email list is now available. Major changes are coming in the near future, including possible hostname and/or URL changes. To be notified of such changes, subscribe to this email list.

Please visit this page for more details.


JPL Small-Body Database Browser
Search: [ help ]  
52622 (1997 VT5)
Classification: Main-belt Asteroid          SPK-ID: 2052622
Ephemeris | Orbit Diagram | Orbital Elements | Mission Design | Physical Parameters | Discovery Circumstances ]

[ show orbit diagram ]
Orbital Elements at Epoch 2459000.5 (2020-May-31.0) TDB
Reference: JPL 28 (heliocentric ecliptic J2000)
 Element Value Uncertainty (1-sigma)   Units 
e .1807943040543444 3.2692e-08  
a 2.649599272531033 1.2827e-08 au
q 2.170566816030888 8.6501e-08 au
i 9.991777659897089 4.5234e-06 deg
node 53.3954565986831 2.1396e-05 deg
peri 255.2782909423262 2.5228e-05 deg
M 182.9504274697795 1.495e-05 deg
tp 2459775.249139293704
(2022-Jul-14.74913929)
6.767e-05 TDB
period 1575.319760222106
4.31
1.144e-05
3.132e-08
d
yr
n .2285250328791934 1.6595e-09 deg/d
Q 3.128631729031178 1.5146e-08 au
  Orbit Determination Parameters
   # obs. used (total)      1542  
   data-arc span      9871 days (27.03 yr)  
   first obs. used      1993-01-24  
   last obs. used      2020-02-03  
   planetary ephem.      DE431  
   SB-pert. ephem.      SB431-N16  
   condition code      0  
   norm. resid. RMS      .50262  
   source      ORB  
   producer      Otto Matic  
   solution date      2020-Feb-23 10:31:49  

Additional Information
 Earth MOID = 1.1819 au 
 Jupiter MOID = 2.18964 au 
 T_jup = 3.346 
[ show covariance matrix ]

Ephemeris | Orbit Diagram | Orbital Elements | Mission Design | Physical Parameters | Discovery Circumstances ]

Physical Parameter Table
Parameter Symbol Value Units Sigma Reference Notes
absolute magnitude H 14.5   n/a MPO417183  

52622 (1997 VT5)          Discovered 1997-Nov-08 by Kobayashi, T. at Oizumi
Reference: 20030216/Numbers.arcLast Updated: 2004-04-19

Alternate Designations
 1997 VT5 = 1993 BS15 = 2000 JV36 
Ephemeris | Orbit Diagram | Orbital Elements | Mission Design | Physical Parameters | Discovery Circumstances ]
ABOUT SSD CREDITS/AWARDS PRIVACY/COPYRIGHT GLOSSARY LINKS
FirstGov 2020-Mar-29 10:01 UT
(server date/time)  
NASA Home Page
Site Manager:   Ryan S. Park
Webmaster  Alan B. Chamberlin